ONEWEB-0034, 45454

Orbit data source: Space-Track

ONEWEB-0034, 45454 is a payload satellite owned by One Web (UK) in LEO that was launched on Sat, 21 Mar 2020 UTC via a SOYUZ-2-1B launch vehicle from the Tyuratam Missile And Space Complex (TTMTR). Payload-class satellites include a variety of spacecraft equipped with specific instruments for various scientific and technological missions. These include communications satellites like Starlink; space stations such as the ISS; scientific satellites like the Hubble; Earth observation satellites from companies like Planet Labs, Umbra, and HawkEye 360; GPS; miniature CubeSats for education and research; and military/defense satellites.

Loading next visibility...
Identifier
45454, 2020-020AG
Orbit
LEO
Last TLE update
14 hours ago
Origin
Manufacturer
One Web
Mission
Operational Commercial Communications
Bus & Motor
ARROW, Unknown motor
Mass
148 kg wet, ~140 kg dry
Launch date (UTC)
2020-03-21 (5 years ago)
Launch vehicle
SOYUZ-2-1B
Launch site
Tyuratam Missile And Space Complex (TTMTR)
Object type
Payload
Rocket body
Debris
Shape & HBR
Trap Box + 2 Pan, 2.5 m
Radar Cross Section
2.957 m², Large (>1 m²)

Expand to show TLE details & history

TLE from 14 hours ago
0 ONEWEB-0034
1 45454U 20020AG  25199.40341818 -.00000493  00000-0 -14259-2 0  9992
2 45454  87.8828  87.5811 0001850  78.3898 281.7437 13.11415472258840
Epoch: 2025-07-18T09:40Z
TLE epoch observation values (Epoch: 2025-07-18T09:40:55.33Z)
Latitude
-0.00009°
Longitude
5.89518°
Altitude
1,220.292 km
Speed
7.244 km/s
True Right ascension
05h 50m 19s
True Declination
0° 00' 00"
Sunlit
Object was in daylight at epoch
Visualization orbit readout
Latitude
-48.77345°
Longitude
-171.81515°
Altitude
1,237.862 km
Speed
7.234 km/s
Apparent Right ascension
21h 10m 04s
Apparent Declination
-56° 03' 23"
Sunlit
Object is in full shadow
Visualization observer readout
Local Sidereal Time
12:27:21
Azimuth
133.564° SE
Elevation
-54.239°
Doppler factor
1
Orbital elements
Apogee altitude
1,216.211 km
Perigee altitude
1,213.402 km
Semi-major axis
7,592.944 km
Eccentricity
0.00019
Inclination
87.8828°
RAAN
87.5811°
Arg. of periapsis
78.3898°
True anomaly
281.72294°
Mean anomaly
281.7437°
Eccentric anomaly
281.73332°
Mean motion
3.28041 °/min
Orbital period
109.74 mins
BSTAR
-0.0014259
Loading maneuver chart data...
Loading SW <> Apogee altitude chart data...
Loading historical data...
Loading historical data...
Loading historical data...
Loading historical data...
Loading historical data...
Loading historical data...
Loading historical data...
|